| time (UTC) | temp F | wind direction | speed MPH | gust MPH | rain 1hr in | rain 24hr in | rain mn in | humidity % | barometer mb |
| 20260510104601 | 35 | 360 | 0.0 | 0.0 | 0.00 | 0.00 | 0.00 | 78 | 1016.4 |
| 20260510103056 | 35 | 360 | 0.0 | 1.0 | 0.00 | 0.00 | 0.00 | 77 | 1016.2 |
| 20260510101555 | 36 | 360 | 0.0 | 0.0 | 0.00 | 0.00 | 0.00 | 75 | 1015.9 |
| 20260510100108 | 36 | 360 | 0.0 | 0.0 | 0.00 | 0.00 | 0.00 | 74 | 1015.6 |
| 20260510094559 | 37 | 360 | 0.0 | 0.0 | 0.00 | 0.00 | 0.00 | 73 | 1015.5 |
| 20260510093044 | 37 | 360 | 0.0 | 1.0 | 0.00 | 0.00 | 0.00 | 73 | 1015.3 |
| 20260510091542 | 38 | 360 | 0.0 | 0.0 | 0.00 | 0.00 | 0.00 | 72 | 1015.1 |
| 20260510090047 | 38 | 360 | 0.0 | 0.0 | 0.00 | 0.00 | 0.00 | 70 | 1015.0 |
| 20260510084551 | 38 | 360 | 0.0 | 0.0 | 0.00 | 0.00 | 0.00 | 70 | 1014.7 |
| 20260510083036 | 38 | 360 | 0.0 | 1.0 | 0.00 | 0.00 | 0.00 | 70 | 1014.7 |
| 20260510081547 | 38 | 360 | 0.0 | 0.0 | 0.00 | 0.00 | 0.00 | 71 | 1014.6 |
| 20260510080038 | 39 | 360 | 0.0 | 0.0 | 0.00 | 0.00 | 0.00 | 70 | 1014.5 |
| 20260510074530 | 39 | 360 | 0.0 | 0.0 | 0.00 | 0.00 | 0.00 | 69 | 1014.3 |
| 20260510073028 | 39 | 360 | 0.0 | 0.0 | 0.00 | 0.00 | 0.00 | 67 | 1014.3 |
| 20260510071529 | 40 | 360 | 0.0 | 0.0 | 0.00 | 0.00 | 0.00 | 67 | 1014.3 |
| 20260510070035 | 40 | 360 | 0.0 | 0.0 | 0.00 | 0.00 | 0.00 | 66 | 1014.1 |
| 20260510064525 | 40 | 360 | 0.0 | 0.0 | 0.00 | 0.00 | 0.00 | 64 | 1014.0 |
| 20260510063022 | 40 | 360 | 0.0 | 2.0 | 0.00 | 0.00 | 0.00 | 63 | 1014.0 |
| 20260510061521 | 40 | 360 | 0.0 | 1.0 | 0.00 | 0.00 | 0.00 | 61 | 1013.8 |
| 20260510060020 | 40 | 360 | 0.0 | 1.0 | 0.00 | 0.00 | 0.00 | 61 | 1013.9 |
| 20260510054518 | 40 | 360 | 0.0 | 1.0 | 0.00 | 0.00 | 0.00 | 62 | 1013.8 |
| 20260510053016 | 40 | 360 | 0.0 | 0.0 | 0.00 | 0.00 | 0.00 | 62 | 1013.6 |
| 20260510051515 | 40 | 360 | 0.0 | 1.0 | 0.00 | 0.00 | 0.00 | 62 | 1013.7 |
| 20260510050013 | 40 | 360 | 0.0 | 0.0 | 0.00 | 0.00 | 0.00 | 62 | 1013.5 |
| 20260510044525 | 40 | 360 | 0.0 | 0.0 | 0.00 | 0.00 | 0.00 | 61 | 1013.4 |
| 20260510043010 | 40 | 360 | 0.0 | 0.0 | 0.00 | 0.00 | 0.00 | 60 | 1013.5 |
| 20260510041507 | 41 | 360 | 0.0 | 0.0 | 0.00 | 0.00 | 0.00 | 59 | 1013.4 |
| 20260510040004 | 41 | 360 | 0.0 | 0.0 | 0.00 | 0.00 | 0.00 | 59 | 1013.3 |
| 20260510034501 | 42 | 360 | 0.0 | 0.0 | 0.00 | 0.00 | 0.00 | 57 | 1013.2 |
| 20260510033137 | 43 | 360 | 0.0 | 0.0 | 0.00 | 0.00 | 0.00 | 58 | 1013.0 |
| 20260510031613 | 44 | 360 | 0.0 | 1.0 | 0.00 | 0.00 | 0.00 | 57 | 1012.9 |
| 20260510030058 | 44 | 360 | 0.0 | 1.0 | 0.00 | 0.00 | 0.00 | 56 | 1012.8 |
| 20260510024551 | 45 | 360 | 0.0 | 1.0 | 0.00 | 0.00 | 0.00 | 55 | 1012.7 |
| 20260510023047 | 46 | 360 | 0.0 | 1.0 | 0.00 | 0.00 | 0.00 | 54 | 1012.5 |
| 20260510021544 | 46 | 360 | 0.0 | 1.0 | 0.00 | 0.00 | 0.00 | 54 | 1012.3 |
| 20260510020046 | 47 | 360 | 0.0 | 1.0 | 0.00 | 0.00 | 0.00 | 54 | 1012.0 |
| 20260510014545 | 48 | 360 | 0.0 | 3.0 | 0.00 | 0.00 | 0.00 | 53 | 1011.9 |
| 20260510013038 | 48 | 5 | 0.0 | 3.0 | 0.00 | 0.00 | 0.00 | 53 | 1011.6 |
| 20260510011541 | 49 | 340 | 0.0 | 4.0 | 0.00 | 0.00 | 0.00 | 52 | 1011.3 |
| 20260510010033 | 49 | 336 | 1.0 | 4.0 | 0.00 | 0.00 | 0.00 | 50 | 1011.1 |
| 20260510004532 | 50 | 337 | 0.0 | 6.0 | 0.00 | 0.00 | 0.00 | 47 | 1010.8 |
| 20260510003031 | 50 | 61 | 0.0 | 3.0 | 0.00 | 0.00 | 0.00 | 46 | 1010.8 |
| 20260510001527 | 49 | 61 | 0.0 | 3.0 | 0.00 | 0.00 | 0.00 | 46 | 1010.6 |
| 20260510000051 | 50 | 61 | 0.0 | 2.0 | 0.00 | 0.00 | 0.00 | 47 | 1010.5 |
| 20260509234539 | 50 | 61 | 1.0 | 3.0 | 0.00 | 0.00 | 0.00 | 45 | 1010.3 |
| 20260509233024 | 50 | 61 | 0.0 | 4.0 | 0.00 | 0.00 | 0.00 | 46 | 1010.0 |
| 20260509231521 | 51 | 59 | 1.0 | 4.0 | 0.00 | 0.00 | 0.00 | 45 | 1009.9 |
| 20260509230019 | 51 | 24 | 1.0 | 6.0 | 0.00 | 0.00 | 0.00 | 45 | 1009.6 |
| 20260509224519 | 51 | 69 | 0.0 | 5.0 | 0.00 | 0.00 | 0.00 | 45 | 1009.5 |
| 20260509223017 | 51 | 55 | 2.0 | 5.0 | 0.00 | 0.00 | 0.00 | 45 | 1009.5 |
| 20260509221515 | 52 | 61 | 1.0 | 4.0 | 0.00 | 0.00 | 0.00 | 44 | 1009.4 |
| 20260509220013 | 52 | 17 | 1.0 | 5.0 | 0.00 | 0.00 | 0.00 | 43 | 1009.3 |
| 20260509214520 | 52 | 347 | 3.0 | 8.0 | 0.00 | 0.00 | 0.00 | 43 | 1009.3 |
| 20260509213012 | 52 | 18 | 2.0 | 5.0 | 0.00 | 0.00 | 0.00 | 45 | 1009.3 |
| 20260509211516 | 52 | 18 | 2.0 | 8.0 | 0.00 | 0.00 | 0.00 | 42 | 1009.2 |
| 20260509210011 | 52 | 316 | 3.0 | 7.0 | 0.00 | 0.00 | 0.00 | 44 | 1009.1 |
| 20260509204509 | 53 | 349 | 2.0 | 8.0 | 0.00 | 0.00 | 0.00 | 43 | 1009.0 |
| 20260509203007 | 54 | 337 | 3.0 | 9.0 | 0.00 | 0.00 | 0.00 | 44 | 1008.9 |
| 20260509201506 | 53 | 59 | 4.0 | 9.0 | 0.00 | 0.00 | 0.00 | 43 | 1008.7 |
| 20260509200006 | 53 | 28 | 3.0 | 10.0 | 0.00 | 0.00 | 0.00 | 41 | 1008.7 |
| 20260509194505 | 52 | 330 | 3.0 | 10.0 | 0.00 | 0.00 | 0.00 | 43 | 1008.5 |
| 20260509193003 | 52 | 328 | 4.0 | 7.0 | 0.00 | 0.00 | 0.00 | 42 | 1008.3 |
| 20260509191501 | 53 | 341 | 4.0 | 11.0 | 0.00 | 0.00 | 0.00 | 42 | 1008.2 |
| 20260509184607 | 52 | 265 | 3.0 | 10.0 | 0.00 | 0.00 | 0.00 | 46 | 1007.9 |
| 20260509183057 | 52 | 249 | 3.0 | 10.0 | 0.00 | 0.00 | 0.00 | 46 | 1007.6 |
| 20260509181619 | 52 | 38 | 2.0 | 7.0 | 0.00 | 0.00 | 0.00 | 46 | 1007.3 |
| 20260509180051 | 53 | 317 | 5.0 | 14.0 | 0.00 | 0.00 | 0.00 | 42 | 1006.9 |
| 20260509174549 | 54 | 311 | 3.0 | 10.0 | 0.00 | 0.00 | 0.00 | 44 | 1006.7 |
| 20260509173058 | 54 | 341 | 4.0 | 11.0 | 0.00 | 0.00 | 0.00 | 45 | 1006.4 |
| 20260509171544 | 54 | 329 | 2.0 | 10.0 | 0.00 | 0.00 | 0.00 | 46 | 1006.2 |
| 20260509170044 | 53 | 324 | 3.0 | 11.0 | 0.00 | 0.00 | 0.00 | 44 | 1006.1 |
| 20260509164541 | 53 | 336 | 3.0 | 11.0 | 0.00 | 0.00 | 0.00 | 46 | 1005.8 |
| 20260509163040 | 52 | 286 | 3.0 | 9.0 | 0.00 | 0.00 | 0.00 | 50 | 1005.7 |
| 20260509161538 | 52 | 351 | 4.0 | 12.0 | 0.00 | 0.00 | 0.00 | 47 | 1005.5 |
| 20260509160040 | 53 | 327 | 4.0 | 10.0 | 0.00 | 0.00 | 0.00 | 45 | 1005.2 |
| 20260509154534 | 52 | 338 | 3.0 | 12.0 | 0.00 | 0.00 | 0.00 | 45 | 1005.0 |
| 20260509153041 | 52 | 315 | 5.0 | 12.0 | 0.00 | 0.00 | 0.00 | 43 | 1004.7 |
| 20260509151530 | 52 | 325 | 3.0 | 9.0 | 0.00 | 0.00 | 0.00 | 45 | 1004.5 |
| 20260509150036 | 52 | 307 | 3.0 | 13.0 | 0.00 | 0.00 | 0.00 | 43 | 1004.3 |
| 20260509144530 | 52 | 338 | 4.0 | 10.0 | 0.00 | 0.00 | 0.00 | 44 | 1003.9 |
| 20260509143025 | 52 | 349 | 3.0 | 9.0 | 0.00 | 0.00 | 0.00 | 43 | 1003.7 |
| 20260509141526 | 51 | 319 | 3.0 | 6.0 | 0.00 | 0.00 | 0.00 | 43 | 1003.5 |
| 20260509140016 | 49 | 304 | 2.0 | 6.0 | 0.00 | 0.00 | 0.00 | 46 | 1003.4 |
| 20260509134531 | 47 | 319 | 1.0 | 6.0 | 0.00 | 0.00 | 0.00 | 49 | 1003.3 |
| 20260509133019 | 47 | 291 | 1.0 | 7.0 | 0.00 | 0.00 | 0.00 | 48 | 1003.2 |
| 20260509131515 | 47 | 308 | 1.0 | 5.0 | 0.00 | 0.00 | 0.00 | 49 | 1003.1 |
| 20260509130011 | 47 | 336 | 1.0 | 5.0 | 0.00 | 0.00 | 0.00 | 48 | 1003.0 |
| 20260509124509 | 47 | 327 | 0.0 | 5.0 | 0.00 | 0.00 | 0.00 | 51 | 1002.8 |
| 20260509123008 | 47 | 313 | 0.0 | 8.0 | 0.00 | 0.00 | 0.00 | 47 | 1002.5 |
| 20260509121536 | 47 | 275 | 1.0 | 6.0 | 0.00 | 0.00 | 0.00 | 47 | 1002.5 |
| 20260509120015 | 47 | 295 | 0.0 | 5.0 | 0.00 | 0.00 | 0.00 | 49 | 1002.3 |
| 20260509114526 | 47 | 329 | 0.0 | 3.0 | 0.00 | 0.00 | 0.00 | 50 | 1002.1 |
| 20260509113017 | 47 | 331 | 1.0 | 5.0 | 0.00 | 0.00 | 0.00 | 49 | 1001.9 |
| 20260509111506 | 47 | 305 | 1.0 | 5.0 | 0.00 | 0.00 | 0.00 | 50 | 1001.7 |
| 20260509110003 | 47 | 307 | 0.0 | 4.0 | 0.00 | 0.00 | 0.00 | 51 | 1001.4 |